Date,TemperatureHighF,TemperatureAvgF,TemperatureLowF,DewpointHighF,DewpointAvgF,DewpointLowF,HumidityHigh,HumidityAvg,HumidityLow,PressureMaxIn,PressureMinIn,WindSpeedMaxMPH,WindSpeedAvgMPH,GustSpeedMaxMPH,PrecipitationSumIn
2013-1-1,68.2,54.5,45.3,58.5,50.2,44.0,97,86,68,30.18,29.94,10,1,10,0.00
2013-1-2,64.7,59.0,50.8,60.5,56.1,49.4,96,90,81,30.13,29.89,13,2,13,0.01
2013-1-3,52.7,50.5,44.5,51.8,49.4,43.4,97,96,93,30.26,30.07,9,0,9,0.13
2013-1-4,56.2,43.3,35.7,44.3,38.3,35.1,98,85,50,30.34,30.24,8,0,8,0.00
2013-1-5,57.5,43.4,30.6,42.6,35.7,29.6,97,78,39,30.41,30.28,9,0,9,0.00
2013-1-6,54.8,49.7,45.2,48.0,45.7,42.7,97,87,65,30.29,30.10,8,0,8,0.01
2013-1-7,59.2,47.7,38.5,45.0,39.6,36.3,95,75,46,30.39,30.17,7,1,10,0.00
2013-1-8,69.6,52.6,42.0,57.2,47.3,39.0,97,83,62,30.39,30.29,8,1,8,0.00
2013-1-9,73.1,56.8,50.7,65.0,54.8,49.8,97,93,74,30.38,30.30,8,0,8,0.00
2013-1-10,72.4,60.4,52.8,63.8,57.5,51.9,98,91,64,30.44,30.34,9,0,9,0.03
2013-1-11,77.6,60.8,55.5,67.8,58.7,54.6,98,94,63,30.34,30.17,11,1,11,0.00
2013-1-12,81.6,67.5,57.5,66.9,62.5,56.9,99,86,56,30.20,30.10,8,0,8,0.00
2013-1-13,78.2,64.2,53.2,66.9,59.9,52.6,98,87,62,30.17,30.07,10,1,10,0.00
2013-1-14,80.1,67.1,57.3,68.6,62.6,56.4,98,87,60,30.19,30.09,14,2,14,0.01
2013-1-15,80.1,66.9,57.5,67.4,62.6,56.9,98,87,58,30.15,30.03,13,1,13,0.00
2013-1-16,80.6,69.3,60.0,66.0,63.8,59.1,98,84,58,30.05,29.94,19,3,19,0.00
2013-1-17,78.8,63.4,48.0,64.4,57.7,41.1,98,83,57,30.04,29.73,24,3,24,0.09
2013-1-18,56.8,45.6,35.5,43.0,34.5,25.5,91,69,31,30.49,30.04,21,3,22,0.01
2013-1-19,65.8,48.5,34.7,49.9,40.2,31.6,96,75,51,30.47,30.22,9,1,9,0.00
2013-1-20,69.9,52.4,41.5,48.6,40.2,27.4,97,70,21,30.22,30.03,13,1,13,0.00
2013-1-21,67.4,51.4,35.0,43.5,36.9,33.0,96,63,29,30.09,29.95,9,1,10,0.00
2013-1-22,56.7,46.2,34.7,35.5,28.6,24.7,83,52,32,30.27,30.03,11,1,11,0.00
2013-1-23,55.7,42.1,32.5,40.2,28.5,18.9,86,61,32,30.38,30.17,14,1,14,0.00
2013-1-24,67.6,51.4,34.8,47.8,36.8,20.1,80,59,36,30.47,30.09,18,3,18,0.00
2013-1-25,51.2,39.8,29.4,41.3,27.6,14.6,70,61,53,30.46,30.14,12,1,12,0.00
2013-1-26,61.2,45.9,37.2,44.2,36.4,31.5,93,71,40,30.32,30.11,12,1,12,0.00
2013-1-27,56.5,40.1,33.5,41.7,35.3,29.8,93,84,53,30.50,30.32,11,1,11,0.00
2013-1-28,67.4,50.8,41.2,56.2,45.3,36.8,96,82,65,30.46,30.27,9,1,9,0.00
2013-1-29,78.6,60.6,45.7,66.3,56.6,44.6,98,88,61,30.27,30.10,14,1,14,0.00
2013-1-30,77.2,70.3,61.0,68.5,65.9,60.4,98,87,71,30.10,29.62,34,6,34,0.10
2013-1-31,63.3,51.2,42.3,61.0,35.4,24.9,95,58,30,30.18,29.70,16,3,31,0.28